GFSGL_925_temp_132.txt.gz
Temp
24 24 24 24 24 24 24 24 25 25 25 25 25 25 25 25 25 25 25 25 25 25 25 25 25 25 26 26 26 26 26 26 24 26 25 25 25 26 27 26 27 27 26
23 24 24 24 24 24 24 25 24 25 25 25 25 25 25 25 25 25 25 25 25 25 25 25 26 26 25 25 25 25 25 25 24 24 25 25 25 25 25 25 25 25 25
23 23 23 24 24 24 24 24 25 25 25 25 25 25 25 25 25 25 25 25 25 25 25 25 26 25 26 25 25 25 25 24 24 25 24 24 25 24 25 25 25 25 25
24 24 23 24 25 24 24 24 24 24 24 24 24 24 24 24 24 24 24 25 25 25 25 25 25 25 25 25 25 25 24 24 24 23 23 23 23 23 23 23 24 24 25
23 23 23 23 24 25 25 24 25 24 24 24 24 24 24 24 24 24 24 24 25 24 24 25 25 24 24 25 24 24 24 24 23 23 23 22 22 22 22 22 22 23 23
22 22 23 22 21 24 25 25 24 24 24 24 24 24 23 23 24 24 24 24 25 25 24 24 24 24 24 24 24 24 23 23 23 23 22 22 22 22 21 21 21 21 21
20 22 21 21 21 23 22 24 24 24 24 24 23 23 23 22 22 23 23 23 24 24 23 23 23 23 23 24 23 23 23 22 22 22 21 21 21 21 21 21 21 21 21
21 18 19 19 20 20 22 22 23 23 23 23 22 21 21 20 20 21 22 23 23 23 23 22 22 22 22 22 22 22 21 21 22 22 21 22 22 22 21 21 21 21 22
17 17 18 19 19 19 19 19 19 20 21 21 19 18 19 20 20 21 22 22 22 21 20 20 21 21 21 21 21 21 21 21 21 20 21 21 21 21 21 21 21 21 21
15 16 17 17 18 18 18 18 18 18 17 16 16 16 17 18 19 20 20 20 20 20 20 20 20 20 20 20 21 21 20 20 21 21 21 21 21 20 21 21 20 20 20
14 15 16 16 17 16 17 17 16 15 14 14 13 14 14 16 17 18 18 18 19 19 19 19 19 19 20 19 19 19 19 19 19 19 20 20 20 19 19 19 19 19 19
14 15 15 15 15 16 16 15 15 15 14 13 13 13 13 13 15 16 17 17 18 18 18 19 18 18 18 19 19 19 19 19 19 18 18 17 17 17 18 18 18 18 17
14 14 14 15 15 15 15 15 14 14 13 13 13 13 14 14 14 14 15 16 17 18 18 18 18 18 17 17 17 18 18 17 17 16 15 15 15 15 16 16 17 17 17
14 14 14 15 15 15 15 15 14 14 14 14 13 13 13 14 14 14 15 15 15 17 18 19 18 17 16 16 16 16 15 15 14 14 13 14 14 15 14 13 13 13 14
14 14 14 14 14 14 14 14 15 14 14 14 14 14 14 15 15 16 15 15 15 15 16 17 16 16 15 14 14 13 13 13 13 12 12 12 11 11 11 11 11 11 9
14 14 14 14 14 14 13 12 13 14 14 14 14 14 15 15 14 15 14 15 15 15 15 15 13 13 12 12 12 11 11 11 11 11 10 10 9 9 8 8 8 7 7
14 14 14 14 14 13 12 13 13 13 13 14 14 14 14 14 13 14 14 14 15 16 14 12 11 11 11 10 10 10 9 9 9 9 8 7 7 7 6 5 5 5 5
14 14 14 14 14 13 13 14 13 13 13 12 12 13 13 13 14 14 14 14 14 13 12 11 10 10 9 9 9 8 8 8 7 6 6 5 5 4 3 3 3 3 3
14 14 14 14 14 14 13 12 13 13 13 13 13 13 13 13 13 13 14 14 12 11 10 10 9 9 9 8 8 7 7 6 6 5 5 4 4 3 2 2 2 2 2
14 15 15 14 14 15 14 13 13 13 13 13 13 14 13 13 12 12 12 12 11 10 10 9 8 8 8 7 7 7 6 6 5 5 4 3 3 2 2 1 1 1 1
14 14 15 15 15 16 15 15 15 13 13 13 14 14 14 13 13 12 12 12 11 10 9 9 8 8 8 8 7 7 6 5 5 4 4 3 2 1 1 0 0 0 1
14 14 14 15 15 15 15 15 15 14 14 14 14 14 14 13 13 12 12 11 11 11 10 10 9 9 8 8 8 7 6 6 5 4 4 3 2 1 1 -0 -0 0 1
14 14 14 14 15 15 15 15 15 15 15 15 14 14 13 13 13 12 12 11 11 11 10 10 10 9 9 9 8 8 7 6 6 5 4 4 3 2 1 -0 0 1 0
14 14 14 14 15 15 15 15 15 15 15 15 15 14 14 14 13 13 13 12 12 11 11 11 10 10 9 9 8 7 7 6 6 5 4 4 3 2 1 0 0 1 0
13 14 14 14 14 15 15 15 15 15 15 15 15 14 14 14 13 13 13 12 12 11 11 10 10 10 10 9 9 8 7 7 6 6 5 4 3 3 2 1 1 0 0
12 13 13 14 13 13 14 14 14 14 14 14 14 14 14 14 14 13 13 13 12 12 12 11 10 10 10 10 9 9 8 7 6 6 5 4 4 3 2 1 1 1 0

GFSGL_925_temp_138.txt.gz
Temp
24 24 23 24 23 23 23 24 24 24 24 24 25 25 24 24 24 24 24 24 24 24 24 24 24 24 24 24 24 24 24 23 22 24 23 24 24 24 25 25 25 24 24
24 24 24 23 23 23 23 23 24 24 24 24 25 25 25 24 24 24 24 24 24 24 24 24 24 24 24 24 24 24 23 23 23 23 23 23 24 24 25 25 25 24 24
24 24 24 23 23 23 23 23 24 24 24 24 24 25 25 24 24 24 24 24 24 24 24 24 24 24 24 24 23 23 23 23 23 23 23 23 23 24 24 23 24 23 23
24 24 23 23 23 23 23 23 23 24 24 24 24 24 25 24 24 24 24 24 24 24 24 24 24 24 24 24 24 23 23 23 23 23 22 22 22 22 23 23 23 22 22
22 22 23 23 23 22 22 23 23 23 24 24 24 24 24 24 24 24 24 24 24 24 24 24 24 24 24 24 24 24 23 23 22 22 22 21 22 21 21 21 21 21 21
20 21 22 21 21 21 22 23 23 23 23 23 22 23 24 24 23 23 24 24 24 24 24 24 24 24 24 24 24 24 23 22 22 21 21 21 20 21 21 21 21 20 20
19 19 20 20 21 21 22 22 23 22 23 23 22 21 21 22 22 22 23 23 23 23 23 24 22 22 23 24 23 22 21 21 21 21 21 20 20 20 21 20 20 19 19
19 19 19 19 20 21 21 21 21 21 22 22 22 21 21 20 20 19 19 20 20 23 22 21 21 21 21 23 22 21 21 21 21 21 21 21 21 20 20 20 20 19 19
18 18 17 17 18 19 20 20 20 21 21 21 20 20 20 19 19 19 19 18 18 19 21 21 20 20 20 20 20 20 19 18 18 19 19 18 19 20 20 20 20 20 19
17 17 17 18 17 18 18 18 18 20 19 18 18 19 19 19 18 18 20 18 18 19 18 18 18 20 19 19 20 20 19 18 18 18 18 19 19 19 20 20 20 20 18
15 16 17 16 16 16 16 16 16 17 16 15 15 16 14 16 17 17 19 19 18 17 16 17 18 18 19 19 19 19 19 18 18 18 17 17 17 17 17 17 17 17 16
15 15 15 16 16 16 16 16 16 16 15 14 13 13 13 12 13 14 17 18 17 18 16 16 16 17 18 18 18 18 17 17 17 17 16 15 14 14 14 14 14 14 13
15 14 15 15 15 15 15 14 14 14 13 13 13 13 12 12 12 12 12 13 14 14 14 13 14 15 16 17 16 16 16 16 16 15 12 12 12 12 12 12 12 11 12
14 14 14 14 14 14 14 13 14 14 13 13 13 12 12 12 12 12 13 13 12 12 11 12 12 14 14 14 15 15 14 14 14 12 11 11 11 12 12 11 11 11 10
14 14 14 14 14 13 13 12 12 13 13 13 13 13 13 13 13 13 12 12 12 13 13 13 13 13 12 12 12 12 12 12 12 11 11 10 10 9 9 9 9 7 6
13 13 13 13 13 12 13 13 12 12 12 12 13 14 14 14 13 13 13 12 12 11 12 12 11 11 11 11 11 11 11 11 10 10 9 8 7 6 6 6 5 5 5
14 13 13 12 12 12 12 12 11 11 12 12 12 13 13 14 14 13 13 12 11 12 12 11 10 10 10 9 9 10 9 9 9 9 9 8 7 4 4 4 4 4 4
13 13 13 13 13 13 13 13 12 12 12 12 13 14 14 14 13 13 13 12 11 11 11 11 10 9 9 9 9 9 8 8 8 8 8 7 6 4 3 3 3 3 3
13 13 13 13 13 13 13 13 13 13 12 12 12 13 13 13 13 14 14 14 12 11 10 10 10 10 9 8 8 8 7 7 6 6 6 6 5 4 3 3 2 2 2
14 14 14 13 13 13 13 13 13 13 13 12 12 12 12 12 13 13 13 13 13 13 11 10 10 9 9 9 8 8 8 7 7 6 6 5 4 4 2 2 2 2 2
14 14 14 14 14 13 13 13 13 13 12 12 12 12 12 13 13 13 12 12 12 11 11 10 11 11 10 9 9 8 7 7 6 5 5 4 4 3 3 2 1 2 2
13 13 13 14 14 14 14 14 14 13 13 13 13 13 12 12 12 12 13 13 12 12 11 11 10 10 9 9 9 8 8 7 7 6 5 5 4 4 3 2 1 1 1
13 13 13 13 13 13 13 14 14 14 14 13 13 13 13 12 12 12 12 12 11 11 10 10 10 9 9 8 8 8 8 8 7 7 6 5 4 3 3 2 2 1 1
12 13 13 13 13 13 13 13 14 14 14 14 14 14 13 13 13 12 12 12 12 11 11 10 10 10 10 9 9 9 8 7 7 7 6 5 5 4 3 3 2 1 1
12 12 12 12 12 13 13 13 13 13 13 14 14 14 14 13 12 13 13 12 12 12 11 11 11 10 10 10 9 9 8 8 7 6 6 6 5 4 4 3 2 1 1
12 12 12 12 12 13 13 12 13 14 14 13 14 14 14 14 14 13 13 12 12 12 12 11 11 11 11 10 10 9 9 8 7 7 6 6 5 5 4 3 3 1 1

GFSGL_925_temp_141.txt.gz
Temp
22 22 22 22 22 23 22 23 24 24 24 24 24 24 24 24 24 24 24 23 24 23 24 24 24 23 24 24 24 23 23 23 26 25 24 23 23 23 23 23 24 24 23
23 22 22 22 23 22 22 24 24 23 24 24 24 24 25 24 22 24 23 24 23 23 23 23 23 24 23 24 24 24 24 23 24 25 24 24 23 23 23 22 24 24 23
22 22 22 22 22 22 22 23 23 23 24 24 24 24 24 24 24 23 24 23 23 23 23 23 23 23 24 24 24 24 24 23 23 24 25 23 23 23 23 23 22 22 23
22 22 22 22 22 22 22 23 23 23 23 24 24 24 24 24 23 23 24 24 23 23 23 23 23 24 24 24 24 23 23 23 23 24 24 24 23 22 22 23 24 23 22
22 21 22 23 23 22 22 22 23 23 24 23 23 23 23 23 23 23 23 24 23 23 23 23 23 24 24 24 24 23 23 23 24 23 24 24 24 24 23 23 23 23 21
20 21 22 23 23 23 23 23 23 23 23 23 23 23 23 23 23 23 23 23 23 23 23 23 23 23 23 24 24 24 23 23 23 23 24 24 23 23 22 23 23 23 22
19 19 19 21 21 21 22 22 23 23 23 23 23 23 23 22 22 22 22 22 22 22 22 23 22 22 21 22 23 23 22 22 22 22 22 22 22 22 20 21 21 22 21
18 18 18 18 19 20 20 21 20 20 20 21 22 22 21 21 21 21 21 20 20 21 21 20 21 21 21 21 21 20 19 19 21 20 20 20 19 19 20 20 20 19 19
18 18 18 18 18 18 18 18 18 19 19 19 20 19 19 18 20 20 20 20 18 18 19 21 20 19 20 20 19 19 18 18 19 20 20 19 20 20 19 20 21 20 20
17 17 17 18 17 17 17 17 18 18 18 17 18 18 18 17 17 18 19 19 19 19 18 18 19 18 19 18 18 18 17 17 17 16 17 18 19 19 20 19 19 22 21
16 16 16 17 17 17 17 17 16 16 16 15 16 15 14 15 16 17 17 17 19 19 17 17 17 17 18 18 17 17 17 16 16 16 16 16 15 16 16 17 18 17 18
15 16 16 16 16 16 16 15 15 15 14 13 13 12 13 13 13 15 16 16 17 17 16 15 15 15 16 17 17 17 16 16 16 16 16 15 15 14 13 13 14 14 14
15 15 15 15 15 14 14 14 14 13 13 13 12 12 11 12 12 13 13 13 13 13 13 13 13 14 15 16 15 15 16 14 14 15 14 13 12 11 11 11 10 12 12
14 14 14 14 14 14 14 13 14 14 14 14 13 13 13 13 12 12 12 12 13 13 12 12 12 12 13 12 13 14 14 13 12 11 11 11 11 11 11 11 11 11 12
13 13 13 13 13 13 13 13 13 13 13 13 13 13 13 13 13 12 12 12 12 12 11 11 12 12 12 12 12 12 12 13 12 12 10 10 11 11 10 10 10 11 11
13 13 12 12 12 12 12 12 13 13 13 13 14 14 14 14 14 13 12 12 12 12 11 11 11 11 11 11 11 11 10 10 9 10 10 10 9 8 8 9 9 9 10
13 13 13 12 12 12 12 12 12 11 12 13 13 14 15 15 14 13 12 12 11 12 12 11 10 9 9 9 9 9 8 8 8 9 8 7 7 6 7 8 8 8 9
13 14 13 13 12 12 12 12 13 13 13 12 13 13 13 13 14 14 13 13 11 11 12 11 10 9 9 9 8 7 8 8 7 7 7 7 7 8 7 7 7 7 7
13 14 13 13 13 13 13 12 13 12 13 12 12 12 12 12 12 12 11 12 12 12 12 11 11 10 10 9 9 8 8 8 8 8 7 8 7 8 7 7 7 5 5
13 13 13 13 13 13 13 14 13 13 13 13 13 12 11 11 11 11 12 12 12 12 11 11 10 9 10 10 9 8 8 7 7 7 7 7 7 7 7 7 7 7 7
14 13 13 14 14 14 14 14 14 14 13 14 14 12 12 13 13 13 12 12 11 11 11 10 9 9 8 8 8 8 8 7 7 7 6 5 5 6 5 4 5 5 5
14 14 14 14 14 13 14 14 14 14 14 14 14 13 13 12 13 12 12 12 11 10 10 10 9 9 8 8 8 7 7 6 6 6 5 4 4 4 3 4 4 4 4
14 14 14 14 14 14 13 14 14 14 15 14 14 14 13 13 13 13 12 12 11 10 10 9 9 9 8 8 8 8 8 7 6 6 5 4 4 4 4 4 5 5 5
14 13 14 14 13 14 14 14 14 14 14 15 14 14 14 14 13 13 13 12 12 11 10 10 10 10 10 9 8 8 7 7 6 6 5 5 5 4 4 4 4 4 4
13 13 13 14 14 13 13 13 13 13 14 13 13 14 13 13 13 13 13 12 12 11 10 10 10 10 9 9 8 8 8 8 8 7 6 5 5 5 5 5 5 5 4
12 12 13 13 13 12 12 13 13 13 14 13 13 14 13 14 14 13 12 11 11 11 11 10 10 10 9 9 8 8 9 8 8 7 6 6 6 6 5 5 5 5 5

GFSGL_925_temp_147.txt.gz
Temp
26 26 26 26 26 25 26 26 25 25 25 25 24 25 26 26 26 26 25 25 26 26 26 26 26 26 27 28 28 29 29 29 29 29 25 26 26 26 26 26 21 20 23
27 26 26 26 26 26 26 26 26 25 25 25 25 25 25 26 26 25 25 26 26 27 26 27 26 27 26 26 27 27 28 27 28 27 28 28 26 26 26 25 26 22 23
28 27 27 26 26 25 26 26 26 25 25 25 25 25 24 24 25 26 25 25 26 26 27 26 26 26 26 26 25 26 27 25 27 27 28 28 28 27 26 26 26 24 23
28 27 27 26 26 26 26 26 24 24 24 24 24 24 25 25 26 26 26 25 26 26 26 26 26 26 26 26 26 25 26 26 27 27 28 28 28 27 27 27 27 24 23
24 25 25 25 24 24 25 26 24 24 23 23 23 24 24 25 25 25 25 26 25 25 26 26 26 26 25 24 24 25 25 26 25 26 26 26 25 26 25 28 27 27 25
22 22 24 24 24 24 23 23 23 23 23 23 23 24 23 24 25 24 24 24 24 24 24 26 26 25 24 24 24 24 24 23 24 24 25 25 24 26 25 26 26 25 26
21 23 22 23 23 23 22 22 23 22 22 22 23 23 22 22 23 22 22 23 23 23 23 23 24 25 23 23 22 23 22 22 23 23 22 23 23 23 24 24 24 23 23
23 22 22 21 20 20 20 20 20 20 20 20 21 21 20 20 20 21 22 22 23 23 21 21 21 22 23 22 22 22 20 20 21 21 21 21 20 21 21 23 21 22 22
21 20 20 20 20 20 20 19 19 19 19 19 19 19 18 17 19 20 21 21 21 20 19 20 21 20 21 21 21 21 20 20 19 19 20 20 19 19 20 21 21 21 21
17 18 18 18 18 18 17 17 17 17 17 17 17 16 18 18 19 20 20 21 23 21 18 18 19 19 19 19 19 19 18 17 18 18 18 18 18 18 19 20 20 23 21
17 17 17 18 17 17 17 17 17 17 17 16 15 15 16 16 17 17 18 18 19 20 20 18 15 17 18 17 18 17 17 17 16 17 18 19 19 18 17 16 17 17 20
16 16 16 16 16 16 16 16 15 15 15 14 14 14 14 15 15 15 16 16 17 17 15 13 13 15 16 16 16 16 16 17 17 17 17 16 15 14 15 15 16 17 17
15 14 15 15 15 15 15 15 15 15 15 15 16 15 15 16 14 14 13 14 15 15 14 13 13 14 14 14 14 14 15 16 16 15 13 14 14 14 15 15 16 16 16
15 15 15 15 15 15 16 16 16 16 18 17 17 16 16 16 16 15 14 12 13 13 12 12 13 13 13 12 13 14 14 14 13 12 11 12 13 14 15 15 15 16 17
14 13 14 15 15 14 13 14 16 15 16 19 18 19 19 19 15 14 14 14 13 12 13 12 12 13 12 11 11 12 12 12 12 11 11 13 13 13 13 13 14 14 14
16 15 14 14 15 14 14 13 14 14 15 15 16 16 16 15 14 13 13 13 13 14 15 15 15 14 13 12 11 10 11 11 11 11 12 11 12 12 12 12 12 12 13
18 18 17 18 17 16 15 15 15 13 14 14 15 15 15 15 13 12 12 13 13 14 15 15 15 15 14 14 13 13 12 11 10 10 9 9 9 10 11 12 12 13 14
18 18 20 20 20 19 19 19 19 19 18 15 14 14 14 13 12 12 13 13 14 15 15 15 17 16 16 15 14 13 12 11 10 10 11 10 11 11 12 13 14 13 14
20 20 20 20 19 19 19 20 20 19 19 17 14 13 13 13 13 13 14 14 17 17 16 16 15 15 14 14 13 14 13 13 13 13 14 13 14 15 14 14 13 12 12
18 18 19 20 19 20 20 20 20 19 19 19 19 17 14 14 15 16 16 16 17 17 16 15 15 15 14 13 13 13 12 12 13 13 13 13 13 13 13 13 12 12 12
20 18 17 19 20 20 20 20 20 20 20 19 19 17 17 17 18 18 17 16 16 17 15 16 15 14 13 13 13 13 14 14 13 13 13 12 12 12 11 11 11 11 10
20 21 20 20 20 20 20 20 20 20 20 20 20 16 16 16 18 18 17 17 17 16 15 14 14 14 13 13 13 13 13 13 11 11 11 11 10 10 10 10 11 11 11
20 21 21 19 20 19 19 19 20 20 20 20 20 18 16 17 18 18 18 17 17 16 15 14 14 14 14 13 13 12 12 13 12 11 11 11 11 11 11 11 11 11 11
20 21 21 20 18 18 19 19 19 19 19 20 20 20 19 19 19 19 18 18 17 16 15 15 15 14 13 13 13 13 13 12 11 11 11 11 11 10 11 11 12 11 11
19 20 20 18 18 17 19 19 20 20 19 19 19 19 18 18 18 18 17 17 17 16 16 15 15 15 14 13 14 13 12 11 11 11 11 11 11 10 11 11 11 11 11
20 19 19 19 18 18 17 18 19 19 18 18 18 18 18 18 17 17 16 15 15 16 15 15 15 15 14 13 13 13 12 11 11 10 10 11 11 11 11 11 10 10 10